Вернуться в каталог

STARLINK-35560

АктивенСвязьVLEO
NORAD 66059·PAYLOAD·🇺🇸 United States

Запущен Oct 19, 2025 с Cape Canaveral Space Force Station

Loading…

Ближайшие Пролёты (ближайшие 24 часа)

TLE

СвежийSource: CelesTrak SupGP

Эпоха: Sep 14, 2026, 22:35 UTC

1 66059C 25235B   26257.94145833  .00024672  00000+0  72915-3 0  2576
2 66059  53.1570  83.7820 0001289  85.4233 183.6989 15.34369264    10

Отслеживайте STARLINK-35560 в реальном времени с AllMySat

Download on the App Store